Location: Innsbruck
(47.2657°N, 11.3914°E)
Time: 02:15:27
(UTC+01:00)

FALCONSAT 3 - Pass Details

Date: 07 December 2021
Orbit: 431 x 434 km, 35.4° (Epoch: 23 January)

Event Time Altitude Azimuth Distance (km) Brightness Sun altitude
Exits shadow 05:47:16 11° 199° (SSW) 1,475 ? -19.5°
Maximum altitude 05:48:19 12° 181° (S) 1,407 ? -19.3°
Drops below altitude 10° 05:49:42 10° 157° (SSE) 1,522 ? -19.1°
Sets 05:52:56 0° 125° (SE) 2,391 ? -18.5°
